Simultaneous Nadir Overpasses (SNOs) Predictions

Prediction of SNOs near US between AQUA and NPP Satellite Orbit:

Table of predicted SNOs near US for the next 10.0 days since TLE Epoch: 6/7/2019
Index Date (AQUA) Time (AQUA) AQUA Lat,Lon Date (NPP) Time (NPP) NPP Lat,Lon Distance(km) Time Diff (sec)
1 06/10/2019 06:30:23 46.36, -65.04 06/10/2019 06:30:35 46.74, -67.06 159.98 12
2 06/10/2019 08:08:16 49.93, -88.34 06/10/2019 08:11:01 50.42, -90.86 187.23 165
3 06/10/2019 09:47:09 49.93,-113.06 06/10/2019 09:52:29 50.53,-116.18 231.64 320
4 06/12/2019 19:06:25 50.00, -92.54 06/12/2019 19:01:19 49.68, -94.46 142.66 306
5 06/12/2019 20:45:18 49.99,-117.25 06/12/2019 20:42:47 49.57,-119.79 187.93 151
6 06/15/2019 10:12:07 26.74,-124.98 06/15/2019 10:05:38 26.88,-125.72 74.94 389




NCC Satellite Simultaneous Nadir Overpasses (SNOs) Prediction Service
